When you browse on this site, cookies collect data to enhance your experience and personalize the content and advertising you see.
Visit our Privacy Policy to learn more. By continuing to use the site, you agree to this use of cookies and data.
  • En España
  • Lista de países
  • Para 7 días
  • Temperatura del agua
  • Mapa Satelital
  • El tiempo en el mapa
  • Informadores
  • user-avatar
    Iniciar sesión

    Tiempo cada hora Chervonyi Hai

    Hoy, 19 Marzo, Martes

    Tiempo Temperatura Precipitaciones Viento Presión Humedad
    00:00 +9°C° 0.2 mm 2 mps 743 mmHg 89%
    01:00 +10°C° 0.2 mm 1 mps 744 mmHg 89%
    02:00 +7°C° 0 mm 3 mps 744 mmHg 88%
    03:00 +7°C° 0 mm 2 mps 744 mmHg 86%
    04:00 +7°C° 0 mm 2 mps 744 mmHg 85%
    05:00 +7°C° 0 mm 2 mps 744 mmHg 83%
    06:00 +7°C° 0 mm 2 mps 745 mmHg 82%
    07:00 +5°C° 0 mm 3 mps 745 mmHg 81%
    08:00 +5°C° 0 mm 4 mps 746 mmHg 77%
    09:00 +5°C° 0 mm 3 mps 746 mmHg 75%
    10:00 +7°C° 0 mm 3 mps 747 mmHg 73%
    11:00 +7°C° 0 mm 2 mps 747 mmHg 71%
    12:00 +8°C° 0 mm 2 mps 747 mmHg 67%
    13:00 +8°C° 0 mm 2 mps 748 mmHg 64%
    14:00 +10°C° 0 mm 1 mps 748 mmHg 62%
    15:00 +10°C° 0 mm 1 mps 748 mmHg 61%
    16:00 +10°C° 0 mm 1 mps 748 mmHg 59%
    17:00 +10°C° 0 mm 1 mps 748 mmHg 58%
    18:00 +10°C° 0 mm 1 mps 748 mmHg 61%
    19:00 +9°C° 0 mm 1 mps 748 mmHg 65%
    20:00 +8°C° 0 mm 1 mps 749 mmHg 68%
    21:00 +8°C° 0 mm 1 mps 749 mmHg 68%
    22:00 +8°C° 0 mm 1 mps 749 mmHg 69%
    23:00 +7°C° 0 mm 2 mps 750 mmHg 69%

    Mañana, 20 Marzo, Miércoles

    Tiempo Temperatura Precipitaciones Viento Presión Humedad
    00:00 +6°C° 0.2 mm 2 mps 750 mmHg 70%
    01:00 +6°C° 0.2 mm 2 mps 750 mmHg 71%
    02:00 +5°C° 0.2 mm 2 mps 750 mmHg 72%
    03:00 +5°C° 0.1 mm 2 mps 750 mmHg 73%
    04:00 +5°C° 0.1 mm 2 mps 751 mmHg 74%
    05:00 +4°C° 0.1 mm 2 mps 751 mmHg 75%
    06:00 +5°C° 0 mm 2 mps 751 mmHg 73%
    07:00 +5°C° 0 mm 2 mps 752 mmHg 71%
    08:00 +5°C° 0 mm 2 mps 752 mmHg 70%
    09:00 +5°C° 0 mm 3 mps 752 mmHg 63%
    10:00 +7°C° 0 mm 3 mps 753 mmHg 56%
    11:00 +8°C° 0 mm 3 mps 753 mmHg 49%
    12:00 +8°C° 0 mm 3 mps 753 mmHg 47%
    13:00 +9°C° 0 mm 3 mps 753 mmHg 45%
    14:00 +8°C° 0 mm 4 mps 753 mmHg 43%
    15:00 +8°C° 0 mm 4 mps 753 mmHg 44%
    16:00 +8°C° 0 mm 4 mps 753 mmHg 45%
    17:00 +7°C° 0 mm 4 mps 753 mmHg 46%
    18:00 +7°C° 0 mm 3 mps 753 mmHg 50%
    19:00 +5°C° 0 mm 3 mps 754 mmHg 54%
    20:00 +5°C° 0 mm 2 mps 754 mmHg 58%
    21:00 +4°C° 0 mm 2 mps 754 mmHg 60%
    22:00 +4°C° 0 mm 2 mps 754 mmHg 62%
    23:00 +3°C° 0 mm 2 mps 754 mmHg 64%

    Pasado mañana, 21 Marzo, Jueves

    Tiempo Temperatura Precipitaciones Viento Presión Humedad
    00:00 +3°C° 0 mm 2 mps 754 mmHg 65%
    01:00 +2°C° 0 mm 2 mps 755 mmHg 66%
    02:00 +2°C° 0 mm 2 mps 755 mmHg 67%
    03:00 +1°C° 0 mm 3 mps 754 mmHg 69%
    04:00 +1°C° 0 mm 3 mps 754 mmHg 71%
    05:00 0°C° 0 mm 3 mps 754 mmHg 72%
    06:00 0°C° 0 mm 4 mps 754 mmHg 70%
    07:00 +1°C° 0 mm 5 mps 754 mmHg 67%
    08:00 +2°C° 0 mm 5 mps 754 mmHg 64%
    09:00 +3°C° 0 mm 6 mps 754 mmHg 61%
    10:00 +4°C° 0 mm 6 mps 754 mmHg 58%
    11:00 +5°C° 0 mm 6 mps 754 mmHg 55%
    12:00 +7°C° 0 mm 6 mps 753 mmHg 57%
    13:00 +7°C° 0 mm 6 mps 753 mmHg 60%
    14:00 +7°C° 0 mm 6 mps 753 mmHg 63%
    15:00 +7°C° 0 mm 5 mps 753 mmHg 64%
    16:00 +7°C° 0 mm 5 mps 753 mmHg 66%
    17:00 +7°C° 0 mm 5 mps 752 mmHg 67%
    18:00 +6°C° 0 mm 4 mps 753 mmHg 72%
    19:00 +5°C° 0 mm 4 mps 753 mmHg 76%
    20:00 +4°C° 0 mm 3 mps 753 mmHg 81%
    21:00 +4°C° 0 mm 3 mps 753 mmHg 83%
    22:00 +3°C° 0 mm 3 mps 753 mmHg 84%
    23:00 +3°C° 0 mm 3 mps 753 mmHg 86%

    22 Marzo, Viernes

    Tiempo Temperatura Precipitaciones Viento Presión Humedad
    00:00 +3°C° 0 mm 3 mps 753 mmHg 86%
    01:00 +3°C° 0 mm 3 mps 753 mmHg 85%
    02:00 +3°C° 0 mm 3 mps 753 mmHg 85%
    03:00 +3°C° 0 mm 4 mps 752 mmHg 87%
    04:00 +3°C° 0 mm 4 mps 752 mmHg 88%
    05:00 +3°C° 0 mm 4 mps 752 mmHg 89%
    06:00 +3°C° 0 mm 5 mps 752 mmHg 88%
    07:00 +5°C° 0 mm 5 mps 752 mmHg 86%
    08:00 +4°C° 0 mm 6 mps 752 mmHg 84%
    09:00 +7°C° 0 mm 6 mps 752 mmHg 81%
    10:00 +8°C° 0 mm 6 mps 751 mmHg 77%
    11:00 +10°C° 0 mm 6 mps 751 mmHg 73%
    12:00 +9°C° 0 mm 6 mps 751 mmHg 74%
    13:00 +9°C° 0 mm 6 mps 751 mmHg 76%
    14:00 +9°C° 0 mm 6 mps 750 mmHg 77%
    15:00 +9°C° 0 mm 6 mps 750 mmHg 77%
    16:00 +9°C° 0 mm 6 mps 750 mmHg 77%
    17:00 +9°C° 0 mm 5 mps 750 mmHg 77%
    18:00 +8°C° 0 mm 5 mps 750 mmHg 80%
    19:00 +8°C° 0 mm 5 mps 750 mmHg 82%
    20:00 +8°C° 0 mm 4 mps 751 mmHg 85%
    21:00 +8°C° 0.1 mm 4 mps 751 mmHg 86%
    22:00 +8°C° 0.1 mm 4 mps 751 mmHg 88%
    23:00 +8°C° 0.1 mm 4 mps 751 mmHg 90%

    23 Marzo, Sábado

    Tiempo Temperatura Precipitaciones Viento Presión Humedad
    00:00 +7°C° 0 mm 4 mps 751 mmHg 90%
    01:00 +8°C° 0 mm 3 mps 751 mmHg 91%
    02:00 +8°C° 0 mm 3 mps 751 mmHg 92%
    03:00 +7°C° 0 mm 3 mps 751 mmHg 93%
    04:00 +5°C° 0 mm 3 mps 751 mmHg 94%
    05:00 +5°C° 0 mm 2 mps 751 mmHg 96%
    06:00 +6°C° 0 mm 2 mps 751 mmHg 93%
    07:00 +6°C° 0 mm 2 mps 751 mmHg 90%
    08:00 +7°C° 0 mm 2 mps 751 mmHg 87%
    09:00 +8°C° 0 mm 2 mps 752 mmHg 79%
    10:00 +9°C° 0 mm 2 mps 752 mmHg 71%
    11:00 +12°C° 0 mm 2 mps 752 mmHg 63%
    12:00 +11°C° 0 mm 3 mps 751 mmHg 63%
    13:00 +12°C° 0 mm 3 mps 751 mmHg 63%
    14:00 +12°C° 0 mm 3 mps 751 mmHg 63%
    15:00 +12°C° 0 mm 3 mps 751 mmHg 66%
    16:00 +11°C° 0 mm 3 mps 751 mmHg 68%
    17:00 +11°C° 0 mm 3 mps 750 mmHg 71%
    18:00 +10°C° 0 mm 3 mps 751 mmHg 74%
    19:00 +10°C° 0 mm 2 mps 751 mmHg 77%
    20:00 +9°C° 0 mm 2 mps 751 mmHg 80%
    21:00 +9°C° 0 mm 2 mps 751 mmHg 81%
    22:00 +8°C° 0 mm 2 mps 751 mmHg 83%
    23:00 +9°C° 0 mm 1 mps 750 mmHg 85%

    24 Marzo, Domingo

    Tiempo Temperatura Precipitaciones Viento Presión Humedad
    00:00 +8°C° 0 mm 2 mps 750 mmHg 85%
    01:00 +8°C° 0 mm 2 mps 750 mmHg 85%
    02:00 +8°C° 0 mm 2 mps 750 mmHg 85%
    03:00 +8°C° 0 mm 2 mps 750 mmHg 85%
    04:00 +8°C° 0 mm 2 mps 750 mmHg 85%
    05:00 +8°C° 0 mm 3 mps 750 mmHg 86%
    06:00 +8°C° 0 mm 3 mps 749 mmHg 85%
    07:00 +9°C° 0 mm 3 mps 749 mmHg 85%
    08:00 +9°C° 0 mm 3 mps 749 mmHg 84%
    09:00 +9°C° 0 mm 3 mps 749 mmHg 82%
    10:00 +10°C° 0 mm 3 mps 749 mmHg 79%
    11:00 +11°C° 0 mm 3 mps 749 mmHg 77%
    12:00 +12°C° 0 mm 3 mps 748 mmHg 72%
    13:00 +13°C° 0 mm 3 mps 748 mmHg 66%
    14:00 +16°C° 0 mm 3 mps 747 mmHg 61%
    15:00 +16°C° 0 mm 3 mps 747 mmHg 61%
    16:00 +16°C° 0 mm 3 mps 746 mmHg 61%
    17:00 +16°C° 0 mm 2 mps 746 mmHg 60%
    18:00 +14°C° 0 mm 3 mps 746 mmHg 65%
    19:00 +13°C° 0 mm 3 mps 745 mmHg 69%
    20:00 +11°C° 0 mm 3 mps 745 mmHg 73%
    21:00 +11°C° 0 mm 3 mps 744 mmHg 74%
    22:00 +11°C° 0 mm 3 mps 744 mmHg 74%
    23:00 +10°C° 0 mm 4 mps 743 mmHg 74%
    Mostrar más